STARLINK-31866, 59668

Orbit data source: Space-Track

STARLINK-31866, 59668 is a payload satellite owned by SpaceX/Seattle (US) in LEO that was launched on Mon, 06 May 2024 UTC via an FALCON 9 launch vehicle from the Air Force Eastern Test Range (AFETR). Payload-class satellites include a variety of spacecraft equipped with specific instruments for various scientific and technological missions. These include communications satellites like Starlink; space stations such as the ISS; scientific satellites like the Hubble; Earth observation satellites from companies like Planet Labs, Umbra, and HawkEye 360; GPS; miniature CubeSats for education and research; and military/defense satellites.

Loading next visibility...
Identifier
59668, 2024-084Q
Orbit
LEO
Country
Flag of USUS
Related business
Manufacturer
SpaceX/Seattle
Mission
Operational spacecraft
Bus & Motor
STARLINK V2M, Unknown motor
Mass
730 kg wet, ~700 kg dry
Launch date (UTC)
2024-05-06 (1 year ago)
Launch vehicle
FALCON 9
Launch site
Air Force Eastern Test Range (AFETR)
Object type
Payload
Rocket body
Debris
Shape & HBR
Unknown
Radar Cross Section
Large (>1 m²)

Expand to show TLE details & history
Last TLE update: 20 hours ago

TLE from 20 hours ago
0 STARLINK-31866
1 59668U 24084Q   25241.74867785 -.00000858  00000-0 -21663-4 0  9993
2 59668  43.0025  38.3747 0001160 287.4933  72.5792 15.27576934 75100
Epoch: 2025-08-29T17:58Z
TLE epoch observation values (Epoch: 2025-08-29T17:58:05.766Z)
Latitude
Longitude
150.65781°
Altitude
482.596 km
Speed
7.626 km/s
True Right ascension
02h 33m 29s
True Declination
0° 00' 00"
Sunlit
Object was in full shadow at epoch
Visualization orbit readout
Latitude
Unknown
Longitude
Unknown
Altitude
Unknown
Speed
Unknown
Apparent Right ascension
Unknown
Apparent Declination
Unknown
Sunlit
N/A
Visualization observer readout
Local Sidereal Time
05:20:56
Azimuth
Unknown
Elevation
Unknown
Doppler factor
Unknown
Orbital elements
Apogee altitude
485.799 km
Perigee altitude
484.207 km
Semi-major axis
6,863.14 km
Eccentricity
0.00012
Inclination
43.0025°
RAAN
38.3747°
Arg. of periapsis
287.4933°
True anomaly
72.59188°
Mean anomaly
72.5792°
Eccentric anomaly
72.58554°
Mean motion
3.81732 °/min
Orbital period
94.31 mins
BSTAR
-0.000021663
Loading maneuver chart data...
Computing Atmospheric mass density...
Loading historical data...
Loading historical data...
Loading historical data...
Loading historical data...
Loading historical data...
Loading historical data...
Loading historical data...

Documentation

Showing up to 5 results
|